STARLINK-32920, 62925

Orbit data source: Space-Track

STARLINK-32920, 62925 is a payload satellite owned by SpaceX/Seattle (US) in LEO that was launched on Sat, 08 Feb 2025 UTC via an FALCON 9 launch vehicle from the Air Force Eastern Test Range (AFETR). Payload-class satellites include a variety of spacecraft equipped with specific instruments for various scientific and technological missions. These include communications satellites like Starlink; space stations such as the ISS; scientific satellites like the Hubble; Earth observation satellites from companies like Planet Labs, Umbra, and HawkEye 360; GPS; miniature CubeSats for education and research; and military/defense satellites.

Loading next visibility...
Identifier
62925, 2025-027U
Orbit
LEO
Country
Flag of USUS
Related business
Manufacturer
SpaceX/Seattle
Mission
Operational Commercial Communications
Bus & Motor
STARLINK V2M, Unknown motor
Mass
730 kg wet, ~700 kg dry
Launch date (UTC)
2025-02-08 (9 months ago)
Launch vehicle
FALCON 9
Launch site
Air Force Eastern Test Range (AFETR)
Object type
Payload
Rocket body
Debris
Shape & HBR
Box + 2 Pan, 17.7 m
Radar Cross Section
33.884 m², Large (>1 m²)

Expand to show TLE details & history
Last TLE update: 9 hours ago

TLE from 9 hours ago
0 STARLINK-32920
1 62925U 25027U   25307.76050824  .00024522  00000-0  89715-3 0  9997
2 62925  43.0004 119.9955 0001902 271.3437  88.7197 15.27598137 42289
Epoch: 2025-11-03T18:15Z
TLE epoch observation values (Epoch: 2025-11-03T18:15:07.911Z)
Latitude
-0.00002°
Longitude
162.95526°
Altitude
482.741 km
Speed
7.626 km/s
True Right ascension
07h 59m 58s
True Declination
0° 00' 00"
Sunlit
Object was in daylight at epoch
Visualization orbit readout
Latitude
Unknown
Longitude
Unknown
Altitude
Unknown
Speed
Unknown
Apparent Right ascension
Unknown
Apparent Declination
Unknown
Sunlit
N/A
Visualization observer readout
Local Sidereal Time
23:15:46
Azimuth
Unknown
Elevation
Unknown
Doppler factor
Unknown
Orbital elements
Apogee altitude
486.245 km
Perigee altitude
483.635 km
Semi-major axis
6,863.077 km
Eccentricity
0.00019
Inclination
43.0004°
RAAN
119.9955°
Arg. of periapsis
271.3437°
True anomaly
88.74149°
Mean anomaly
88.7197°
Eccentric anomaly
88.73059°
Mean motion
3.81738 °/min
Orbital period
94.31 mins
BSTAR
0.00089715
Loading maneuver chart data...
Computing Atmospheric mass density...
Loading historical data...
Loading historical data...
Loading historical data...
Loading historical data...
Loading historical data...
Loading historical data...
Loading historical data...

Documentation

Showing up to 5 results
|